Farmington, MO

2:09 AM CST on December 10, 2019 (GMT -0600)
Farmington Regional

Weather History for KFAM - August, 2019

Change the Weather History Date:

Saturday, August 17, 2019

  Actual Average Record
Temperature  
Mean Temperature 80 °F -  
Max Temperature 93 °F 83 °F 96 °F (2003)
Min Temperature 66 °F 63 °F 53 °F (2008)
Cooling Degree Days 14    
Growing Degree Days 30 (Base 50)    
Moisture  
Dew Point 71 °F    
Average Humidity 75    
Maximum Humidity 100    
Minimum Humidity 49    
Precipitation  
Precipitation 0.00 in - - ()
Sea Level Pressure  
Sea Level Pressure 29.95 in    
Wind  
Wind Speed 5 mph (South)    
Max Wind Speed 12 mph    
Max Gust Speed 17 mph    
Visibility 10 miles    
Events      
Averages and records for this station are not official NWS values.
T = Trace of Precipitation, MM = Missing Value Source: NWS Daily Summary

Daily Weather History Graph

Daily Weather History Graph

Search for Another Location

Airport or City:

Astronomy

Aug. 17, 2019 Rise Set
Actual Time 6:18 AM CDT 7:52 PM CDT
Civil Twilight 5:50 AM CDT 8:19 PM CDT
Nautical Twilight 5:17 AM CDT 8:53 PM CDT
Astronomical Twilight 4:42 AM CDT 9:28 PM CDT
Moon 9:21 PM CDT (8/17) 8:06 AM CDT (8/17)
Length of Visible Light 14h 28m
Length of Day
13h 33m
Waning Gibbous, 96% of the Moon is Illuminated
Aug 17
Waning Gibbous
Aug 23
Last Quarter
Aug 30
New
Sep 5
First Quarter
Sep 13
Full

Hourly Weather History & Observations

Time (CDT) Temp. Heat Index Dew Point Humidity Pressure Visibility Wind Dir Wind Speed Gust Speed Precip Events Conditions
12:56 AM 66.9 °F - 66.9 °F 100% 29.99 in 10.0 mi Calm Calm - N/A   Clear
1:56 AM 68.0 °F - 66.9 °F 96% 29.95 in 10.0 mi Calm Calm - N/A   Clear
2:56 AM 68.0 °F - 66.9 °F 96% 29.94 in 10.0 mi Calm Calm - N/A   Clear
3:56 AM 69.1 °F - 68.0 °F 96% 29.94 in 10.0 mi SSE 4.6 mph - N/A   Clear
4:56 AM 70.0 °F - 69.1 °F 97% 29.95 in 10.0 mi SSE 5.8 mph - N/A   Clear
5:56 AM 71.1 °F - 70.0 °F 96% 29.95 in 10.0 mi South 6.9 mph - N/A   Clear
6:56 AM 73.0 °F - 71.1 °F 93% 29.97 in 10.0 mi SSW 6.9 mph - N/A   Clear
7:56 AM 73.9 °F - 72.0 °F 93% 30.00 in 10.0 mi North - - N/A   Clear
8:13 AM 75.2 °F - 71.6 °F 89% 29.99 in 10.0 mi North - - N/A   Partly Cloudy
8:56 AM 82.0 °F 86.7 °F 72.0 °F 71% 29.98 in 10.0 mi SSW 6.9 mph - N/A   Partly Cloudy
9:56 AM 82.0 °F 86.3 °F 71.1 °F 69% 29.99 in 10.0 mi NW 11.5 mph 17.3 mph N/A   Partly Cloudy
10:56 AM 82.0 °F 85.9 °F 70.0 °F 67% 30.00 in 10.0 mi Calm Calm - N/A   Clear
11:56 AM 84.9 °F 90.1 °F 71.1 °F 63% 29.99 in 10.0 mi SE 6.9 mph - N/A   Clear
12:56 PM 89.1 °F 96.0 °F 72.0 °F 57% 29.95 in 10.0 mi South 10.4 mph - N/A   Clear
1:56 PM 91.0 °F 97.6 °F 71.1 °F 52% 29.94 in 10.0 mi SW 9.2 mph - N/A   Clear
2:56 PM 91.9 °F 99.5 °F 72.0 °F 52% 29.92 in 10.0 mi SW 11.5 mph - N/A   Clear
3:56 PM 93.0 °F 100.1 °F 71.1 °F 49% 29.90 in 10.0 mi South 11.5 mph - N/A   Clear
4:56 PM 91.0 °F 97.6 °F 71.1 °F 52% 29.89 in 10.0 mi South 11.5 mph - N/A   Clear
5:56 PM 89.1 °F 96.0 °F 72.0 °F 57% 29.91 in 10.0 mi SSW 5.8 mph - N/A   Clear
6:56 PM 87.1 °F 94.5 °F 73.0 °F 63% 29.90 in 10.0 mi South 11.5 mph - N/A   Clear
7:23 PM 86.0 °F 93.4 °F 73.4 °F 66% 29.89 in 10.0 mi South 10.4 mph - N/A   Partly Cloudy
7:56 PM 84.0 °F 89.6 °F 72.0 °F 67% 29.90 in 10.0 mi South 6.9 mph - N/A   Clear
8:56 PM 81.0 °F 85.8 °F 73.0 °F 77% 29.92 in 10.0 mi SSE 4.6 mph - N/A   Clear
9:56 PM 80.1 °F 84.2 °F 73.0 °F 79% 29.94 in 10.0 mi South 6.9 mph - N/A   Clear
10:56 PM 80.1 °F 84.2 °F 73.0 °F 79% 29.94 in 10.0 mi South 5.8 mph - N/A   Clear
11:56 PM 80.1 °F 84.2 °F 73.0 °F 79% 29.94 in 10.0 mi South 10.4 mph - N/A   Clear